This is the latest recevied weather packets stored in our database for station/object HB9EYZ-1. If no packets are shown the sender has not sent any weather packets the latest 1 day(s).
| Time | Temp. | Humidity | Pressure | Rain* | Wind** | Luminosity | Snow |
|---|---|---|---|---|---|---|---|
| 1777982252 | 19.44° C | 24% | 1004.6 hPa | 0.76 mm | 0 m/s | - | - |
| 1777981935 | 18.89° C | 25% | 1004.4 hPa | 0.76 mm | 0 m/s | - | - |
| 1777981618 | 18.89° C | 25% | 1004.3 hPa | 0.76 mm | 0 m/s | - | - |
| 1777981301 | 18.33° C | 26% | 1004.6 hPa | 0.76 mm | 0 m/s | - | - |
| 1777980984 | 17.78° C | 25% | 1004.9 hPa | 0.76 mm | 0 m/s | - | - |
| 1777980667 | 17.22° C | 30% | 1004.5 hPa | 0.76 mm | 0 m/s | - | - |
| 1777980350 | 16.67° C | 30% | 1004.9 hPa | 0.76 mm | 0 m/s | - | - |
| 1777980032 | 16.11° C | 32% | 1004.9 hPa | 0.76 mm | 0 m/s | - | - |
| 1777979715 | 15.56° C | 34% | 1004.9 hPa | 0.76 mm | 0 m/s | - | - |
| 1777979398 | 15.56° C | 35% | 1004.9 hPa | 0.76 mm | 0 m/s | - | - |
| 1777979081 | 15° C | 34% | 1005 hPa | 0.76 mm | 0 m/s | - | - |
| 1777978765 | 15° C | 33% | 1004.9 hPa | 0.76 mm | 0 m/s | - | - |
| 1777978447 | 15° C | 34% | 1005.1 hPa | 0.76 mm | 0 m/s | - | - |
| 1777978130 | 15° C | 35% | 1005.4 hPa | 0.76 mm | 0 m/s | - | - |
| 1777977813 | 15° C | 36% | 1005.2 hPa | 0.76 mm | 0 m/s | - | - |
| 1777977497 | 15° C | 37% | 1005.2 hPa | 0.76 mm | 0 m/s | - | - |
| 1777977180 | 14.44° C | 36% | 1005.2 hPa | 0.76 mm | 0 m/s | - | - |
| 1777976864 | 14.44° C | 37% | 1005.4 hPa | 0.76 mm | 0 m/s | - | - |
| 1777976547 | 14.44° C | 36% | 1005.2 hPa | 0.76 mm | 0 m/s | - | - |
| 1777976231 | 13.89° C | 40% | 1005.2 hPa | 0.76 mm | 0 m/s | - | - |
| 1777975914 | 13.89° C | 41% | 1005.5 hPa | 0.76 mm | 0 m/s | - | - |
| 1777975597 | 13.89° C | 44% | 1005.4 hPa | 0.76 mm | 0 m/s | - | - |
| 1777975280 | 13.89° C | 47% | 1005.4 hPa | 0.76 mm | 0 m/s | - | - |
| 1777974964 | 13.89° C | 51% | 1005 hPa | 0.76 mm | 0 m/s | - | - |
| 1777974647 | 13.89° C | 52% | 1005.1 hPa | 0.76 mm | 0 m/s | - | - |
* Rain latest hour (hover to see other rain measurements)
** Current wind speed in m/s (hover to see current wind gust speed)